{"data":{"norad_id":60043,"intl_designator":"2024-112F","name":"STARLINK-11086 [DTC]","alt_names":[],"object_type":"PAYLOAD","status":"ACTIVE","operator":null,"country":"US","launch_date":"2024-06-08","launch_site_code":"AFWTR","launch_vehicle":null,"mission":null,"orbit_class":"UNKNOWN","rcs_meters":null,"size_class":null,"mass_kg":null,"dimensions":null,"purposes":["comms"],"wikipedia_slug":null,"has_3d_model":false,"image_url":null,"decayed_at":null,"tle_current":{"epoch":"2026-05-24T17:33:31.199040Z","epoch_age_seconds":94307,"freshness":"FRESH","line1":"1 60043U 24112F   26144.73161110  .00004768  00000+0  44130-4 0  9990","line2":"2 60043  53.1581 251.4526 0000792  88.1984 271.9124 15.69740459112920","mean_motion":15.69740459,"eccentricity":7.92e-5,"inclination_deg":53.1581,"raan_deg":251.4526,"arg_perigee_deg":88.1984,"mean_anomaly_deg":271.9124,"bstar":4.413e-5,"rev_number":11292,"period_min":91.734910172179,"perigee_km":359.10595792435,"apogee_km":360.17322173618,"semimajor_km":6737.7765898303,"source":"CELESTRAK","updated_at":"2026-05-25T13:38:19.152943Z"}}}